TimeEDT,TemperatureF,Dew PointF,Humidity,Sea Level PressureIn,VisibilityMPH,Wind Direction,Wind SpeedMPH,Gust SpeedMPH,PrecipitationIn,Events,Conditions,WindDirDegrees,DateUTC
12:56 AM,57.0,55.9,96,29.82,5.0,Calm,Calm,-,0.08,Rain,Light Rain,0,2013-03-12 04:56:00
1:07 AM,57.2,55.4,94,29.84,4.0,WNW,5.8,-,0.01,Rain,Rain,290,2013-03-12 05:07:00
1:16 AM,57.2,55.4,94,29.85,2.5,NW,4.6,-,0.05,Rain,Heavy Rain,310,2013-03-12 05:16:00
1:23 AM,57.2,55.4,94,29.84,1.8,Calm,Calm,-,0.11,Rain,Heavy Rain,0,2013-03-12 05:23:00
1:29 AM,57.2,55.4,94,29.82,2.0,ESE,4.6,-,0.15,Rain,Heavy Rain,110,2013-03-12 05:29:00
1:36 AM,57.2,55.4,94,29.81,3.0,ESE,5.8,-,0.18,Rain,Heavy Rain,120,2013-03-12 05:36:00
1:56 AM,57.0,57.0,100,29.80,4.0,South,3.5,-,0.22,Rain,Rain,180,2013-03-12 05:56:00
1:59 AM,57.2,57.2,100,29.82,3.0,South,5.8,-,0.02,Rain,Heavy Rain,180,2013-03-12 05:59:00
2:06 AM,57.2,57.2,100,29.82,2.5,South,4.6,-,0.06,Rain,Heavy Rain,180,2013-03-12 06:06:00
2:16 AM,57.2,57.2,100,29.82,3.0,SSW,6.9,-,0.09,Rain,Rain,200,2013-03-12 06:16:00
2:54 AM,57.2,57.2,100,29.80,8.0,South,10.4,-,0.18,Rain,Light Rain,180,2013-03-12 06:54:00
2:56 AM,57.9,57.0,97,29.79,8.0,SSE,9.2,-,0.18,Rain,Light Rain,160,2013-03-12 06:56:00
3:56 AM,59.0,57.0,93,29.78,4.0,South,11.5,19.6,0.02,Rain,Light Rain,190,2013-03-12 07:56:00
4:56 AM,59.0,57.9,96,29.77,4.0,SSW,10.4,-,0.02,Rain,Light Rain,200,2013-03-12 08:56:00
5:56 AM,59.0,57.9,96,29.78,6.0,WSW,11.5,-,0.00,Rain,Light Rain,240,2013-03-12 09:56:00
6:21 AM,57.2,57.2,100,29.79,10.0,WSW,5.8,-,0.00,,Overcast,240,2013-03-12 10:21:00
6:56 AM,57.0,55.9,96,29.80,10.0,SW,10.4,-,0.00,,Overcast,220,2013-03-12 10:56:00
7:05 AM,55.4,55.4,100,29.81,10.0,WSW,11.5,-,N/A,,Overcast,240,2013-03-12 11:05:00
8:19 AM,53.6,53.6,100,29.83,10.0,SW,11.5,-,N/A,,Overcast,230,2013-03-12 12:19:00
8:56 AM,52.0,51.1,97,29.86,6.0,West,10.4,-,N/A,,Overcast,270,2013-03-12 12:56:00
9:08 AM,51.8,50.0,94,29.87,1.5,WSW,13.8,-,N/A,,Overcast,240,2013-03-12 13:08:00
9:18 AM,51.8,50.0,94,29.88,0.5,WSW,10.4,-,N/A,Fog,Fog,250,2013-03-12 13:18:00
9:56 AM,48.9,48.9,100,29.88,0.5,West,5.8,-,N/A,Fog,Fog,260,2013-03-12 13:56:00
10:09 AM,48.2,48.2,100,29.88,2.0,WSW,11.5,-,N/A,,Overcast,240,2013-03-12 14:09:00
10:29 AM,46.4,46.4,100,29.90,6.0,West,4.6,-,0.01,,Overcast,270,2013-03-12 14:29:00
10:56 AM,48.9,46.9,93,29.90,9.0,WSW,8.1,-,0.01,,Overcast,250,2013-03-12 14:56:00
11:03 AM,48.2,46.4,93,29.90,10.0,West,6.9,-,N/A,,Overcast,270,2013-03-12 15:03:00
11:28 AM,50.0,46.4,87,29.89,10.0,West,5.8,-,N/A,,Overcast,260,2013-03-12 15:28:00
11:53 AM,51.8,46.4,82,29.90,10.0,Variable,5.8,-,N/A,,Overcast,0,2013-03-12 15:53:00
11:56 AM,51.1,46.9,86,29.90,10.0,WNW,5.8,-,N/A,,Overcast,290,2013-03-12 15:56:00
12:32 PM,55.4,46.4,72,29.90,10.0,SW,5.8,-,N/A,,Mostly Cloudy,220,2013-03-12 16:32:00
12:42 PM,55.4,46.4,72,29.90,10.0,West,8.1,-,N/A,,Scattered Clouds,270,2013-03-12 16:42:00
12:56 PM,57.9,46.9,67,29.89,10.0,West,6.9,-,N/A,,Partly Cloudy,260,2013-03-12 16:56:00
1:56 PM,61.0,46.0,58,29.89,10.0,West,8.1,18.4,N/A,,Clear,270,2013-03-12 17:56:00
2:56 PM,64.0,46.0,52,29.88,10.0,West,5.8,-,N/A,,Clear,260,2013-03-12 18:56:00
3:56 PM,66.0,45.0,47,29.86,10.0,West,9.2,17.3,N/A,,Clear,260,2013-03-12 19:56:00
4:56 PM,68.0,42.1,39,29.87,10.0,WSW,8.1,-,N/A,,Clear,240,2013-03-12 20:56:00
5:56 PM,68.0,36.0,31,29.87,10.0,WNW,6.9,-,N/A,,Clear,290,2013-03-12 21:56:00
6:56 PM,64.9,36.0,34,29.89,10.0,WSW,8.1,-,N/A,,Clear,250,2013-03-12 22:56:00
7:56 PM,59.0,35.1,41,29.92,10.0,WSW,8.1,-,N/A,,Clear,240,2013-03-12 23:56:00
8:56 PM,59.0,28.9,32,29.95,10.0,West,8.1,-,N/A,,Clear,260,2013-03-13 00:56:00
9:56 PM,55.9,28.9,36,29.98,10.0,West,6.9,-,N/A,,Clear,260,2013-03-13 01:56:00
10:56 PM,52.0,32.0,47,30.01,10.0,West,5.8,-,N/A,,Clear,260,2013-03-13 02:56:00
11:56 PM,51.1,32.0,48,30.04,10.0,West,3.5,-,N/A,,Clear,280,2013-03-13 03:56:00